Location: Guayaquil
(2.1667°S, 79.9000°W)
Time: 20:22:10
(UTC-05:00)

ISS - Visible Passes

Search period start: 23 September 2017 00:00
Search period end: 03 October 2017 00:00
Orbit: 401 x 407 km, 51.6° (Epoch: 24 September)

Date Brightness Start Highest point End Pass type
(mag) Time Alt. Az. Time Alt. Az. Time Alt. Az.
23 Sep -2.0 05:42:46 10° NNW 05:45:46 34° NE 05:48:47 10° ESE visible
24 Sep -0.8 04:51:53 10° NNE 04:53:32 13° NE 04:55:11 10° E visible
25 Sep -3.6 05:34:21 10° NW 05:37:31 49° SW 05:40:43 10° SSE visible
26 Sep -3.1 04:44:54 47° NNE 04:45:16 50° NE 04:48:28 10° SE visible
27 Sep -1.8 05:28:39 13° WSW 05:29:16 13° SW 05:30:57 10° SSW visible
28 Sep -1.2 04:39:28 13° S 04:39:28 13° S 04:39:58 10° SSE visible
